BEIDOU-3 M3 (C21)

Last updated on Sat Aug 15 2026 00:03:26 GMT+0000 (Coordinated Universal Time)

1 43208U 18018B 26225.18517153 -.00000029 00000+0 00000+0 0 9993 2 43208 56.7025 61.2746 0006556 350.0225 10.0312 1.86230776 57806
UTC large
Height (km)
Speed (km/s)
/
Latitude / Longitude
Inclination (degrees)
Orbital Period (minutes)
Azimuth
Elevation
Range (km)
Doppler Factor

Next 0 passes for location: London (51.5072 / 0.1276)

No passes found over London.
BEIDOU-3 M3 (C21)